This is the latest recevied weather packets stored in our database for station/object DL1GHN-6. If no packets are shown the sender has not sent any weather packets the latest 10 day(s).
| Time | Temp. | Humidity | Pressure | Rain* | Wind** | Luminosity | Snow |
|---|---|---|---|---|---|---|---|
| 1778172430 | 15° C | 70% | 1015.4 hPa | 0 mm | - | 91 W/m² | - |
| 1778172129 | 15° C | 71% | 1015.3 hPa | 0 mm | - | 93 W/m² | - |
| 1778171830 | 15° C | 70% | 1015.3 hPa | 0 mm | - | 134 W/m² | - |
| 1778171529 | 15° C | 70% | 1015.3 hPa | 0 mm | - | 163 W/m² | - |
| 1778171229 | 15° C | 71% | 1015.3 hPa | 0 mm | - | 163 W/m² | - |
| 1778170929 | 15° C | 72% | 1015.3 hPa | 0 mm | - | 156 W/m² | - |
| 1778170629 | 15° C | 71% | 1015.3 hPa | 0 mm | - | 158 W/m² | - |
| 1778170330 | 15° C | 68% | 1015.4 hPa | 0 mm | - | 135 W/m² | - |
| 1778170029 | 15° C | 70% | 1015.4 hPa | 0 mm | - | 128 W/m² | - |
| 1778169730 | 15° C | 69% | 1015.3 hPa | 0 mm | - | 151 W/m² | - |
| 1778169429 | 15° C | 68% | 1015.3 hPa | 0 mm | - | 162 W/m² | - |
| 1778169129 | 15° C | 68% | 1015.3 hPa | 0 mm | - | 178 W/m² | - |
| 1778168829 | 15.56° C | 69% | 1015.3 hPa | 0 mm | - | 192 W/m² | - |
| 1778168529 | 15.56° C | 72% | 1015.4 hPa | 0 mm | - | 190 W/m² | - |
| 1778168230 | 15.56° C | 68% | 1015.3 hPa | 0 mm | - | 227 W/m² | - |
| 1778167930 | 15.56° C | 71% | 1015.4 hPa | 0 mm | - | 343 W/m² | - |
| 1778167629 | 15.56° C | 71% | 1015.4 hPa | 0 mm | - | 283 W/m² | - |
| 1778167330 | 15° C | 71% | 1015.4 hPa | 0 mm | - | 258 W/m² | - |
| 1778167029 | 15° C | 68% | 1015.5 hPa | 0 mm | - | 227 W/m² | - |
| 1778166730 | 15.56° C | 71% | 1015.5 hPa | 0 mm | - | 216 W/m² | - |
| 1778166430 | 15.56° C | 67% | 1015.5 hPa | 0 mm | - | 325 W/m² | - |
| 1778166129 | 15.56° C | 68% | 1015.5 hPa | 0 mm | - | 243 W/m² | - |
| 1778165829 | 15.56° C | 71% | 1015.4 hPa | 0 mm | - | 278 W/m² | - |
| 1778165530 | 15.56° C | 71% | 1015.5 hPa | 0 mm | - | 311 W/m² | - |
| 1778165230 | 15.56° C | 70% | 1015.5 hPa | 0 mm | - | 301 W/m² | - |
* Rain latest hour (hover to see other rain measurements)
** Current wind speed in m/s (hover to see current wind gust speed)